Regional Weather Roundup
Issued by NWS

Home | Current Version | Previous Version | Graphics & Text | Print | Product List | Glossary On
Versions: 1 2 3 4 5 6 7 8 9 10 11 12 13 14 15 16 17 18 19 20 21 22 23 24 25 26 27 28 29 30 31 32 33 34 35 36 37 38 39 40 41 42 43 44 45 46 47 48 49 50
000
ASUS43 KMPX 190110
RWRMN
WEATHER ROUNDUP FOR MINNESOTA
NATIONAL WEATHER SERVICE TWIN CITIES/CHANHASSEN MN
800 PM CDT THU SEP 18 2014


NOTE: "FAIR" INDICATES FEW OR NO CLOUDS BELOW 12,000 FEET WITH NO
SIGNIFICANT WEATHER AND/OR OBSTRUCTIONS TO VISIBILITY. N/A MEANS
CURRENT SKY AND/OR WEATHER CONDITIONS ARE NOT AVAILABLE.

MNZ060>063-068>070-190200-
   Twin Cities Metro

CITY           SKY/WX    TMP DP  RH WIND       PRES   REMARKS
TWIN CITIES    MOCLDY    67  56  67 SE8       30.00R
ST PAUL        CLEAR     64  57  78 SE9       30.01R
CRYSTAL        CLEAR     67  52  58 SE5       29.98R
BLAINE         PTCLDY    66  57  72 SE7       29.99S
LAKEVILLE      CLEAR     61  54  77 S3        30.01R
EDEN PRAIRIE     N/A     64  52  64 SE8       29.98
SOUTH ST PAUL  CLEAR     65  57  73 SE7       30.00R
LAKE ELMO      FAIR      63  57  82 SE6       30.02R
$$
MNZ001>005-007-008-013>017-022>024-027-028-190200-
   Northwest Minnesota

CITY           SKY/WX    TMP DP  RH WIND       PRES   REMARKS
BEMIDJI        MOCLDY    57  52  83 SE10G17   29.88S
HALLOCK        CLOUDY    70  57  64 S21       29.70F
ROSEAU         MOCLDY    63  54  72 SE13G21   29.77F
WARROAD        MOCLDY    61  55  82 SE12      29.79F
THIEF RVR FALL MOCLDY    66  55  68 SE12G20   29.78F
CROOKSTON      MOCLDY    66  57  72 S16       29.75F
FOSSTON        MOCLDY    63  54  72 SE9G16    29.83F
DETROIT LAKES  PTCLDY    64  57  77 S12       29.86S
MOORHEAD       PTCLDY    72  59  64 S13       29.79F
PARK RAPIDS    MOCLDY    61  55  81 SE12      29.88F
MAHNOMEN       FAIR      64  56  76 SE8       29.82F
$$
MNZ006-009>011-018-025>026-190200-
   North Central Minnesota

CITY           SKY/WX    TMP DP  RH WIND       PRES   REMARKS
BAUDETTE       MOCLDY    60  52  74 S8        29.84S
FLAG ISLAND    MOCLDY    59  54  82 SE15      29.78F
INTL FALLS     PTCLDY    56  50  80 SE9       29.89F
WASKISH        MOCLDY    59  54  82 SE7       29.87S
BIG FORK       PTCLDY    55  48  76 SE6       29.94F
LONGVILLE      PTCLDY    55  52  88 SE6       29.92F
GRAND RAPIDS   PTCLDY    52  46  82 SE12      29.96F
CRANE LAKE     CLEAR     50  46  87 SE5       29.98S
ORR            CLEAR     52  45  76 S10       29.94S
COOK           MOCLDY    50  46  87 SE7       29.99S
WALKER         FAIR      57  53  85 SE5       29.90F
$$
MNZ012-019>021-037-190200-
   Northeast Minnesota

CITY           SKY/WX    TMP DP  RH WIND       PRES   REMARKS
DULUTH         CLOUDY    46  42  86 E13       30.04S
ELY            CLOUDY    45  41  87 S10       30.02S
HIBBING        CLOUDY    50  46  86 S10       30.01S
EVELETH        CLOUDY    46  45  93 S8        30.03R
DULUTH HARBOR  CLOUDY    50  46  87 NE16      30.07R
TWO HARBORS    CLOUDY    43  37  81 E8        30.04F
SILVER BAY     CLOUDY    41  41 100 NE7       30.05F
GRAND MARAIS     N/A     47  39  74 E8        30.10S
G MARAIS ARPRT CLOUDY    37  34  87 E3        30.08R
$$
MNZ029>031-032-039>041-046>048-054>057-064-190200-
   West Central Minnesota

CITY           SKY/WX    TMP DP  RH WIND       PRES   REMARKS
FERGUS FALLS   PTCLDY    66  54  63 S12       29.84F
WHEATON        CLEAR     64  55  72 SE9G16    29.85F
MORRIS         PTCLDY    66  55  68 SE9       29.88S
ALEXANDRIA     MOCLDY    64  54  69 SE9       29.91F
ELBOW LAKE     FAIR      66  56  70 SE12      29.86F
WADENA         PTCLDY    63  55  77 SE10      29.88F
GLENWOOD       MOCLDY    63  55  77 SE7       29.92F
APPLETON       PTCLDY    68  55  64 SE6       29.89R
BENSON         MOCLDY    66  55  68 S8        29.91R
ORTONVILLE     CLEAR     66  55  68 S7        29.87S
MADISON        CLEAR     66  57  72 SE7       29.89S
WILLMAR        FAIR      64  52  63 SE6       29.95S
$$
MNZ033>034-036-042>043-049>051-058-059-190200-
   Central Minnesota

CITY           SKY/WX    TMP DP  RH WIND       PRES   REMARKS
ST CLOUD       CLEAR     66  53  63 SE5       29.96S
SAUK CENTRE    FAIR      64  52  64 SE9       29.93F
PAYNESVILLE    PTCLDY    63  52  67 E3        29.95S
AITKIN         CLEAR     57  52  82 E3        29.96F
PINE RIVER     PTCLDY    57  54  88 SE9       29.95F
BRAINERD       PTCLDY    58  54  86 SE9       29.94F
STAPLES        MOCLDY    61  55  82 SE6       29.91F
LONG PRAIRIE   FAIR      61  54  77 SE6       29.93F
LITTLE FALLS   PTCLDY    61  55  82 E7        29.94F
LITCHFIELD     CLEAR     63  55  77 SE5       29.96S
BUFFALO        CLEAR     64  53  66 SE5       29.98S
MAPLE LAKE     CLEAR     64  56  77 CALM      29.98S
$$
MNZ037-044-045-052-053-190200-
   East Central Minnesota

CITY           SKY/WX    TMP DP  RH WIND       PRES   REMARKS
PRINCETON      CLEAR     64  57  77 E6        29.98S
MORA           CLEAR     57  52  82 SE5       30.01R
CAMBRIDGE      CLEAR     64  54  68 E5        29.98R
RUSH CITY      MOCLDY    59  55  86 SE3       30.01R
MOOSE LAKE     CLEAR     46  45  93 NE3       30.01R
HINCKLEY       FAIR      57  54  88 E5        30.01R
CLOQUET        CLOUDY    46  45  93 E7        30.03S
MCGREGOR       CLEAR     54  50  87 E7        30.00S
$$
MNZ071>073-080-081-089-090-097-098-190200-
   Southwest Minnesota

CITY           SKY/WX    TMP DP  RH WIND       PRES   REMARKS
MONTEVIDEO     PTCLDY    66  54  63 S6        29.92R
GRANITE FALLS  PTCLDY    67  53  60 SE10      29.93S
CANBY          PTCLDY    66  56  69 SE7       29.91S
MARSHALL       PTCLDY    66  54  63 S10       29.91S
REDWOOD FALLS  PTCLDY    67  52  58 SE10      29.93F
OLIVIA         PTCLDY    64  52  63 SE7       29.93F
PIPESTONE      PTCLDY    64  54  68 S7        29.94S
WINDOM         CLEAR     63  50  63 SE7       29.97S
WORTHINGTON    CLEAR     63  50  63 S8        29.98R
JACKSON        CLEAR     64  50  59 SE7       29.99S
TRACY          PTCLDY    64  53  67 CALM      29.95R
SLAYTON        PTCLDY    63  51  64 CALM      29.96R
$$
MNZ065>067-074>077-082>085-091>093-190200-
   South Central Minnesota

CITY           SKY/WX    TMP DP  RH WIND       PRES   REMARKS
MANKATO        CLEAR     64  48  55 SE10      29.99R
NEW ULM        CLEAR     63  52  67 SE6       29.97S
ST JAMES       CLEAR     64  48  55 SE7       29.99R
FAIRMONT       CLEAR     61  43  51 S8        29.99S
GLENCOE        CLEAR     66  51  59 SE6       29.97S
FARIBAULT      CLEAR     64  52  63 SE5       30.02R
OWATONNA       CLEAR     63  52  67 SE7       30.02R
WASECA         CLEAR     59  46  63 SE7       30.03R
ALBERT LEA     CLEAR     63  54  72 S6        30.02R
$$
MNZ078>079-086>088-094>096-190200-
   Southeast Minnesota

CITY           SKY/WX    TMP DP  RH WIND       PRES   REMARKS
ROCHESTER      CLEAR     60  54  80 SE8       30.05R
RED WING       MOCLDY    64  57  77 SE10      30.02R
STANTON        CLEAR     65  53  64 SE6       30.00R
DODGE CENTER   CLEAR     57  54  88 S6        30.04R
WINONA         CLEAR     59  55  88 SE3       30.06R
AUSTIN         CLEAR     63  52  67 S5        30.03S
PRESTON        PTCLDY    61  58  90 SE5       30.06S
$$
ABBREVIATIONS USED IN REMARKS
   TC - TEMPERATURES IN CELSIUS
  WCI - WIND CHILL INDEX
   HX - HEAT INDEX
  VSB - VISIBILITY
$$



USA.gov is the U.S. government's official web portal to all federal, state and local government web resources and services.